Location: Newark
(40.7360°N, 74.1730°W)
Time: 17:09:50
(UTC-04:00)

ISS - All Passes

Search period start: 01 July 2015 00:00
Search period end: 11 July 2015 00:00
Orbit: 398 x 403 km, 51.6° (Epoch: 01 July)

Date Brightness Start Highest point End Pass type
(mag) Time Alt. Az. Time Alt. Az. Time Alt. Az.
01 Jul - 08:53:27 10° S 08:55:54 20° SE 08:58:24 10° E daylight
01 Jul - 10:29:00 10° WSW 10:32:07 44° NNW 10:35:15 10° NE daylight
01 Jul - 12:07:16 10° NW 12:09:10 14° NNW 12:11:03 10° NNE daylight
01 Jul - 13:44:55 10° NNW 13:46:35 13° N 13:48:17 10° NE daylight
01 Jul - 15:20:43 10° NW 15:23:43 34° NNE 15:26:44 10° E daylight
01 Jul - 16:57:14 10° WNW 17:00:04 27° SW 17:02:52 10° SSE daylight
02 Jul - 08:02:15 10° SE 08:02:37 10° SE 08:03:08 10° ESE daylight
02 Jul - 09:35:22 10° SW 09:38:36 84° NW 09:41:52 10° NE daylight
02 Jul - 11:13:04 10° WNW 11:15:25 18° NNW 11:17:45 10° NNE daylight
02 Jul - 12:51:23 10° NNW 12:52:48 12° N 12:54:13 10° NNE daylight
02 Jul - 14:27:26 10° NNW 14:30:05 23° NNE 14:32:45 10° ENE daylight
02 Jul - 16:03:30 10° WNW 16:06:41 57° SW 16:09:52 10° SE daylight
03 Jul - 08:42:03 10° SSW 08:45:10 47° SE 08:48:19 10° ENE daylight
03 Jul - 10:18:57 10° W 10:21:42 25° NNW 10:24:28 10° NE daylight
03 Jul - 11:57:30 10° NNW 11:58:58 12° N 12:00:26 10° NNE daylight
03 Jul - 13:34:09 10° NNW 13:36:21 17° NNE 13:38:36 10° ENE daylight
03 Jul - 15:09:59 10° NW 15:13:13 71° NE 15:16:27 10° ESE daylight
03 Jul - 16:47:50 10° WSW 16:49:16 12° SW 16:50:35 10° SSW daylight
04 Jul - 07:49:09 10° S 07:51:47 23° SE 07:54:28 10° ENE daylight
04 Jul - 09:25:00 10° W 09:28:04 39° NNW 09:31:08 10° NE daylight
04 Jul - 11:03:20 10° NW 11:05:09 14° N 11:06:56 10° NNE daylight
04 Jul - 12:40:48 10° NNW 12:42:34 14° N 12:44:21 10° NE daylight
04 Jul - 14:16:35 10° NW 14:19:39 38° NNE 14:22:43 10° E daylight
04 Jul - 15:53:15 10° WNW 15:55:56 24° SW 15:58:35 10° S daylight
05 Jul - 06:57:11 10° SSE 06:58:27 12° SE 06:59:50 10° ESE daylight
05 Jul - 08:31:16 10° WSW 08:34:29 72° NW 08:37:44 10° NE daylight
05 Jul - 10:09:05 10° WNW 10:11:21 17° NNW 10:13:35 10° NNE daylight
05 Jul - 11:47:17 10° NNW 11:48:44 12° N 11:50:12 10° NNE daylight
05 Jul - 13:23:15 10° NW 13:26:00 25° NNE 13:28:45 10° E daylight
05 Jul - 14:59:24 10° WNW 15:02:33 48° SW 15:05:40 10° SE daylight
06 Jul - 07:37:49 10° SW 07:40:59 56° SE 07:44:11 10° ENE daylight
06 Jul - 09:14:54 10° WNW 09:17:36 23° NNW 09:20:16 10° NNE daylight
06 Jul - 10:53:26 10° NNW 10:54:52 12° N 10:56:17 10° NNE daylight
06 Jul - 12:29:56 10° NNW 12:32:14 18° NNE 12:34:35 10° ENE daylight
06 Jul - 14:05:48 10° NW 14:09:03 82° NE 14:12:17 10° SE daylight
06 Jul - 15:44:22 10° WSW 15:45:03 10° SW 15:45:35 10° SW daylight
07 Jul - 06:44:46 10° SSW 06:47:34 27° SE 06:50:23 10° ENE daylight
07 Jul - 08:20:51 10° W 08:23:53 35° NNW 08:26:55 10° NE daylight
07 Jul - 09:59:18 10° NW 10:01:00 13° N 10:02:42 10° NNE daylight
07 Jul - 11:36:34 10° NNW 11:38:26 14° NNE 11:40:19 10° NE daylight
07 Jul - 13:12:21 10° NW 13:15:28 43° NNE 13:18:35 10° ESE daylight
07 Jul - 14:49:10 10° W 14:51:41 21° SW 14:54:10 10° S daylight
08 Jul - 05:52:27 10° SSE 05:54:10 14° SE 05:56:00 10° E daylight
08 Jul - 07:27:02 10° WSW 07:30:16 63° NNW 07:33:29 10° NE daylight
08 Jul - 09:05:00 10° WNW 09:07:09 16° NNW 09:09:18 10° NNE daylight
08 Jul - 10:43:03 10° NNW 10:44:34 13° N 10:46:04 10° NNE daylight
08 Jul - 12:18:58 10° NW 12:21:47 27° NNE 12:24:37 10° E daylight
08 Jul - 13:55:11 10° WNW 13:58:16 41° SW 14:01:19 10° SSE daylight
09 Jul - 06:33:29 10° SW 06:36:42 65° SE 06:39:56 10° ENE daylight
09 Jul - 08:10:45 10° WNW 08:13:21 21° NNW 08:15:56 10° NNE daylight
09 Jul - 09:49:15 10° NNW 09:50:40 12° N 09:52:04 10° NNE daylight
09 Jul - 11:25:36 10° NNW 11:28:01 19° NNE 11:30:26 10° ENE daylight
09 Jul - 13:01:31 10° NW 13:04:46 86° SSW 13:08:00 10° SE daylight
10 Jul - 05:40:18 10° SSW 05:43:13 31° SE 05:46:09 10° ENE daylight
10 Jul - 07:16:38 10° W 07:19:35 32° NNW 07:22:34 10° NE daylight
10 Jul - 08:55:07 10° NW 08:56:45 13° N 08:58:23 10° NNE daylight
10 Jul - 10:32:12 10° NNW 10:34:10 15° NNE 10:36:08 10° NE daylight
10 Jul - 12:07:59 10° NW 12:11:10 49° NNE 12:14:19 10° ESE daylight
10 Jul - 13:45:01 10° W 13:47:19 18° SW 13:49:35 10° S daylight
